Wetbulb
54.59 53.90 71.81 73.12 73.33 73.13 73.43 73.36 73.66 73.86 73.42 73.01 72.78 72.28 72.54 73.61 73.75 73.90 74.08 73.98 73.77 73.54 73.68 73.03 72.80 73.72 73.19 73.04 73.20 73.41 73.30 73.02 74.00 73.82 73.86 74.45 74.26 74.39 73.82 74.10 73.86 72.02 73.13
50.02 65.99 71.88 71.88 72.72 72.38 72.53 73.10 73.56 73.86 73.69 73.29 72.82 72.62 72.21 72.22 72.69 73.26 73.31 73.31 73.16 73.26 73.24 73.16 72.59 73.34 72.81 73.19 73.35 72.96 73.51 73.23 73.69 73.23 72.91 72.91 73.30 73.97 73.92 74.08 73.44 73.07 73.33
48.22 53.93 61.48 70.42 71.48 71.67 71.97 72.43 73.18 73.11 73.21 72.91 72.71 72.58 72.42 72.32 72.07 71.82 71.68 71.89 72.24 72.19 72.76 72.85 72.31 72.82 72.74 72.15 73.19 73.14 73.14 73.46 73.64 72.49 72.35 73.18 73.52 73.81 73.85 73.34 73.89 74.13 72.71
46.48 49.00 56.10 64.66 67.82 70.49 71.00 71.56 72.14 72.28 72.70 72.87 72.49 72.36 72.19 72.15 72.21 72.14 72.15 72.12 72.05 72.41 72.88 72.86 72.65 72.49 72.71 71.81 72.11 72.85 72.68 73.12 72.49 72.02 72.29 72.87 72.77 73.60 73.59 73.53 74.04 73.45 73.20
43.99 46.11 50.35 60.61 63.21 64.80 67.64 70.37 71.72 72.32 72.25 72.09 72.22 72.35 72.22 72.15 72.13 72.22 72.25 72.24 72.34 72.27 72.36 72.70 72.60 72.18 72.40 72.13 72.04 72.32 72.26 72.62 71.82 71.71 72.58 72.84 72.91 73.24 73.63 73.56 73.82 73.72 74.24
41.75 43.56 46.64 56.40 59.60 61.27 62.92 65.71 68.47 70.96 72.02 72.69 72.71 72.51 72.39 72.43 72.22 72.13 72.49 72.79 72.49 72.45 72.13 72.31 72.74 71.94 72.06 71.74 71.82 72.41 72.48 72.18 70.59 72.27 72.51 72.78 73.08 73.66 73.77 73.63 73.81 73.75 74.16
39.59 41.20 41.67 51.54 55.00 57.26 59.25 61.54 63.64 66.31 69.98 71.02 72.08 72.87 72.56 72.73 72.56 72.78 72.55 72.43 72.02 72.04 71.87 71.95 71.59 71.65 71.96 71.79 71.78 72.68 72.99 71.00 71.26 71.69 72.02 72.58 73.03 73.56 73.80 73.62 73.11 73.35 73.60
37.18 38.85 39.15 44.32 49.60 51.97 54.62 57.65 60.19 62.49 65.85 69.86 71.01 71.20 71.72 71.89 72.02 71.91 71.90 71.90 71.59 71.29 71.50 71.73 71.63 71.31 71.48 71.51 71.58 72.05 72.20 69.86 69.82 71.12 71.71 72.24 72.60 73.25 73.63 73.85 73.36 73.58 73.17
36.44 36.03 36.61 37.80 41.68 46.00 49.34 53.03 56.01 58.98 61.38 66.07 70.01 70.07 70.51 70.37 70.75 71.27 71.45 71.17 71.24 71.18 71.29 71.23 71.09 71.48 71.09 71.64 71.81 71.53 70.74 69.00 71.03 71.04 71.05 71.98 71.57 72.82 73.17 73.75 73.56 73.07 72.80
36.96 35.21 34.02 35.33 36.91 38.48 42.01 48.54 51.57 53.73 56.72 60.50 67.52 68.29 67.37 67.39 68.93 70.49 70.18 70.20 70.09 69.72 69.72 70.47 70.75 71.07 71.20 71.31 71.02 70.29 69.04 68.05 71.00 71.17 71.55 71.66 71.54 72.55 72.80 73.23 73.03 72.99 72.95
37.36 36.34 34.00 33.18 34.65 36.84 39.56 42.19 45.95 49.12 51.66 55.17 59.96 66.40 66.53 69.62 70.19 69.90 68.21 67.73 68.58 69.02 68.66 68.79 70.02 70.58 70.02 69.31 69.57 68.81 67.01 70.80 71.05 71.10 71.20 70.45 70.97 72.13 72.61 72.95 73.18 72.67 72.77
34.02 35.58 34.87 33.70 33.70 34.73 37.12 38.37 40.89 42.90 45.28 48.99 51.49 63.18 69.34 69.71 69.29 68.55 65.96 65.07 67.46 68.14 67.90 67.72 68.00 69.27 68.58 70.24 70.07 66.93 70.59 70.80 70.76 70.95 71.24 69.69 70.57 71.77 72.43 71.96 72.67 72.06 72.13
33.56 34.16 34.33 34.37 34.95 33.79 33.06 36.08 37.81 39.16 41.96 45.07 48.10 49.35 61.56 67.37 67.88 68.90 69.45 69.14 69.32 65.80 69.10 68.42 68.18 68.94 69.61 69.74 69.70 69.64 69.93 70.18 69.97 70.04 70.17 67.73 69.75 71.59 71.89 71.57 71.26 71.89 71.88
31.68 32.20 33.04 33.86 34.69 34.63 33.31 33.44 35.20 36.95 40.13 41.79 43.17 47.70 52.36 64.26 65.90 67.19 67.08 67.32 66.05 67.43 67.84 68.50 68.46 68.71 68.84 68.39 68.46 68.73 69.23 69.04 69.26 69.38 68.33 66.61 67.73 70.53 71.14 70.85 71.38 71.84 71.37
29.37 30.56 31.45 32.86 33.27 33.77 34.14 33.98 34.13 35.63 37.98 39.20 41.79 45.52 50.39 55.49 64.05 66.72 66.40 66.45 65.39 64.94 65.67 66.27 67.17 67.65 67.61 67.61 67.50 67.49 67.48 68.15 68.12 68.60 68.05 64.52 66.07 68.50 69.48 69.62 69.65 71.46 71.34
28.18 28.64 30.29 31.18 32.28 32.84 33.00 34.68 34.48 35.31 36.46 40.20 41.03 45.26 45.57 50.47 60.94 64.73 65.70 65.12 64.94 63.86 64.49 65.80 65.74 66.02 66.58 66.76 66.45 66.50 66.30 67.13 66.94 66.23 66.84 68.31 65.12 67.25 67.95 67.51 68.01 67.99 71.12
27.48 27.88 27.97 29.36 31.17 30.90 31.89 33.71 34.56 35.09 37.39 38.90 38.99 39.79 42.40 47.75 49.49 61.12 64.61 64.36 62.99 64.26 63.71 64.81 65.21 65.77 64.96 65.09 64.36 63.56 62.97 63.52 63.00 64.46 66.19 67.61 67.57 64.01 66.65 66.94 68.12 70.16 70.71
26.75 26.50 27.68 28.20 28.94 29.32 30.45 31.97 33.03 35.13 36.79 37.70 36.51 38.89 40.84 42.47 46.25 49.36 62.33 64.04 63.23 62.62 63.28 62.68 63.81 62.81 61.58 60.77 58.64 55.42 57.33 58.78 60.36 60.67 63.27 66.76 68.07 67.04 66.32 66.19 66.85 67.73 68.18
25.48 25.27 26.11 27.23 26.94 27.23 29.40 30.66 32.02 33.20 34.88 35.17 37.79 35.61 37.03 36.89 41.67 42.45 51.24 63.97 63.57 62.58 62.26 62.39 62.57 60.23 55.91 52.92 50.74 49.33 49.19 50.07 52.30 56.12 58.34 63.50 66.22 67.11 65.74 65.32 65.40 65.75 66.57
25.07 24.97 25.52 25.82 25.77 26.35 28.07 28.85 30.58 32.40 32.46 35.14 35.50 35.55 32.63 34.99 36.05 38.37 42.13 51.93 62.17 61.31 61.22 61.84 59.55 56.73 54.02 50.75 48.52 47.13 46.81 46.72 47.83 50.00 52.05 56.81 64.24 65.91 65.93 65.59 65.14 64.88 64.85
24.07 23.03 23.48 23.40 23.86 24.82 24.88 24.12 25.81 26.70 29.50 32.10 34.08 33.09 31.05 32.08 32.58 34.85 39.44 43.15 55.98 59.77 60.34 59.25 55.21 52.19 49.26 49.94 49.75 48.08 48.23 47.42 45.81 45.86 47.56 52.27 54.52 64.25 65.21 64.93 64.70 64.43 64.12
21.79 21.36 21.52 21.51 21.99 22.90 23.07 23.62 24.81 25.61 29.14 30.31 32.00 30.88 31.28 29.58 31.68 33.49 35.83 38.38 43.42 57.57 58.97 56.61 53.55 50.82 48.79 50.54 50.30 48.82 45.79 47.62 46.76 45.45 45.16 47.10 50.98 56.32 59.30 61.71 62.43 62.43 62.32
19.74 18.80 19.29 19.36 20.10 21.63 20.99 22.76 23.26 25.79 27.68 28.76 27.34 28.48 28.97 27.68 30.17 31.39 33.61 36.42 40.22 44.18 56.93 56.46 55.08 53.19 50.49 50.65 51.66 50.88 45.74 45.26 44.38 45.61 43.98 44.22 47.35 51.64 54.55 56.27 57.79 58.78 59.36
18.20 18.96 18.17 18.00 18.90 20.13 20.10 19.63 18.76 19.76 20.49 23.48 25.10 26.94 27.68 27.84 27.44 29.91 32.59 34.79 36.27 38.97 56.44 55.76 55.09 55.22 54.78 50.60 50.63 49.15 50.49 49.73 47.35 42.57 44.01 43.55 44.70 47.55 51.48 52.62 54.28 55.55 56.72
17.82 17.92 17.39 17.11 17.52 18.52 17.95 18.00 18.65 17.80 19.84 21.68 23.37 24.31 26.25 27.00 24.89 27.78 30.38 32.29 32.67 36.28 42.84 55.63 54.70 54.07 54.66 54.53 52.21 48.88 49.59 47.58 47.45 46.35 40.36 42.52 43.47 43.77 47.44 50.36 50.85 52.27 54.16
17.87 17.26 16.78 16.31 16.01 16.83 16.42 16.37 16.72 15.82 16.84 18.69 20.34 21.86 23.99 24.36 23.63 25.34 27.01 28.22 30.41 33.53 36.68 47.18 55.16 53.79 53.96 54.43 52.82 51.47 49.40 48.19 47.56 46.61 44.73 42.82 39.99 39.78 43.38 47.24 49.93 50.55 51.67
MSLP
1019.58 1018.61 1016.18 1015.76 1015.27 1015.21 1015.39 1015.49 1015.57 1015.70 1015.69 1015.52 1015.53 1015.54 1015.52 1015.42 1015.39 1015.48 1015.61 1015.76 1015.76 1015.66 1015.51 1015.72 1015.61 1015.65 1015.79 1015.80 1015.94 1015.96 1015.93 1015.97 1015.93 1016.02 1016.00 1015.95 1015.93 1015.94 1016.22 1016.14 1016.01 1015.92 1016.46
1021.96 1017.59 1016.42 1015.96 1016.10 1015.97 1015.80 1015.72 1015.71 1015.77 1015.81 1015.84 1015.83 1015.91 1015.89 1015.78 1015.70 1015.74 1015.81 1015.83 1015.84 1015.87 1015.74 1015.70 1015.74 1015.75 1015.87 1015.93 1016.03 1016.14 1016.19 1016.12 1016.16 1016.28 1016.31 1016.30 1016.38 1016.32 1016.43 1016.42 1016.25 1016.43 1016.70
1022.28 1020.67 1018.60 1016.99 1016.44 1016.31 1016.38 1016.42 1016.29 1016.11 1016.04 1015.99 1015.98 1015.98 1016.06 1016.01 1015.92 1015.89 1015.91 1015.89 1015.86 1015.83 1015.88 1015.80 1015.74 1015.83 1015.83 1016.00 1016.11 1016.22 1016.28 1016.31 1016.39 1016.42 1016.45 1015.99 1016.20 1016.64 1016.65 1016.70 1016.73 1016.89 1016.98
1023.97 1022.27 1020.38 1019.03 1018.02 1017.20 1016.53 1016.51 1016.60 1016.65 1016.45 1016.32 1016.30 1016.34 1016.29 1016.26 1016.17 1016.18 1016.12 1016.01 1015.88 1015.83 1015.86 1015.97 1015.95 1015.94 1016.00 1016.09 1016.13 1016.35 1016.33 1016.42 1016.47 1016.63 1016.18 1015.78 1015.95 1016.74 1016.84 1017.04 1017.02 1017.25 1017.32
1024.39 1023.05 1021.80 1020.38 1019.30 1018.72 1018.12 1017.07 1016.52 1016.39 1016.53 1016.59 1016.40 1016.51 1016.47 1016.46 1016.40 1016.36 1016.31 1016.22 1016.16 1016.05 1016.04 1016.03 1016.05 1016.09 1016.15 1016.34 1016.34 1016.33 1016.38 1016.49 1016.54 1016.58 1015.63 1015.81 1015.83 1016.55 1016.96 1017.14 1017.16 1017.34 1017.38
1024.87 1023.76 1022.80 1021.50 1020.45 1019.73 1019.03 1018.40 1017.80 1016.89 1016.36 1016.39 1016.37 1016.48 1016.44 1016.43 1016.45 1016.43 1016.38 1016.35 1016.24 1016.24 1016.16 1016.22 1016.18 1016.18 1016.28 1016.41 1016.45 1016.44 1016.45 1016.52 1016.64 1016.05 1015.73 1015.89 1016.02 1016.40 1016.95 1017.20 1017.30 1017.30 1017.58
1025.35 1024.55 1023.68 1022.65 1021.42 1020.64 1020.03 1019.39 1018.69 1018.05 1017.36 1016.60 1016.42 1016.39 1016.41 1016.37 1016.36 1016.40 1016.39 1016.35 1016.32 1016.27 1016.24 1016.25 1016.23 1016.28 1016.35 1016.38 1016.40 1016.41 1016.46 1016.53 1016.30 1015.86 1015.87 1016.01 1016.15 1016.52 1016.78 1017.19 1017.48 1017.51 1017.70
1026.49 1025.51 1024.64 1023.43 1022.46 1021.73 1021.06 1020.36 1019.71 1018.78 1018.15 1017.43 1016.73 1016.41 1016.47 1016.46 1016.27 1016.32 1016.41 1016.40 1016.44 1016.38 1016.29 1016.27 1016.27 1016.32 1016.38 1016.43 1016.30 1016.31 1016.39 1016.55 1016.46 1015.97 1016.06 1016.14 1016.13 1016.64 1016.74 1017.05 1017.32 1017.62 1017.92
1027.29 1026.41 1025.44 1024.56 1023.56 1022.58 1021.86 1021.14 1020.37 1019.55 1018.75 1017.88 1017.04 1016.64 1016.54 1016.46 1016.45 1016.37 1016.40 1016.49 1016.44 1016.51 1016.41 1016.31 1016.40 1016.30 1016.33 1016.41 1016.34 1016.24 1016.43 1016.62 1016.14 1015.78 1016.04 1015.98 1016.36 1016.64 1016.80 1017.03 1017.34 1017.50 1017.82
1027.36 1027.01 1026.45 1025.54 1024.68 1023.76 1022.89 1022.04 1021.15 1020.40 1019.37 1018.45 1017.39 1016.81 1016.73 1016.65 1016.52 1016.47 1016.54 1016.54 1016.59 1016.62 1016.51 1016.39 1016.38 1016.33 1016.35 1016.39 1016.30 1016.26 1016.42 1016.72 1016.33 1015.92 1016.03 1015.95 1016.47 1016.60 1016.75 1017.00 1017.34 1017.41 1017.86
1027.44 1027.18 1027.36 1026.79 1026.09 1025.11 1023.91 1023.09 1022.16 1021.20 1020.26 1019.31 1018.36 1016.88 1016.80 1016.45 1016.34 1016.30 1016.43 1016.66 1016.69 1016.70 1016.65 1016.55 1016.44 1016.34 1016.37 1016.49 1016.45 1016.43 1016.56 1016.11 1016.09 1015.95 1015.97 1016.33 1016.68 1016.59 1016.70 1016.87 1017.26 1017.40 1018.01
1028.17 1027.94 1027.97 1027.63 1027.09 1026.21 1025.14 1024.35 1023.26 1022.42 1021.64 1020.63 1019.75 1018.02 1016.51 1016.34 1016.31 1016.36 1016.54 1016.73 1016.78 1016.78 1016.70 1016.64 1016.48 1016.38 1016.39 1015.97 1016.26 1016.71 1016.24 1016.06 1016.10 1016.12 1016.12 1016.47 1016.65 1016.64 1016.58 1016.83 1017.10 1017.30 1017.79
1030.19 1029.47 1028.97 1028.42 1027.68 1027.14 1026.45 1025.36 1024.52 1023.64 1022.59 1021.55 1020.56 1019.73 1018.24 1017.00 1016.57 1016.07 1016.21 1016.44 1016.50 1016.53 1016.21 1016.23 1016.06 1015.89 1015.68 1015.84 1015.95 1015.79 1015.80 1016.13 1016.32 1016.43 1016.18 1016.46 1016.61 1016.60 1016.49 1016.72 1016.77 1017.08 1017.62
1030.85 1030.47 1029.94 1029.23 1028.36 1027.64 1027.24 1026.55 1025.56 1024.50 1023.54 1022.51 1021.69 1020.59 1019.52 1017.57 1016.73 1016.16 1015.88 1016.42 1016.68 1016.68 1016.33 1016.10 1015.78 1015.59 1015.81 1016.37 1016.14 1015.89 1015.82 1016.19 1016.30 1016.35 1016.62 1016.66 1016.67 1016.46 1016.20 1016.49 1016.66 1016.92 1017.32
1031.81 1031.28 1030.74 1030.07 1029.24 1028.50 1027.58 1027.09 1025.91 1025.12 1024.28 1023.20 1022.24 1021.26 1020.22 1018.96 1017.04 1015.93 1015.69 1016.24 1016.58 1016.73 1016.65 1016.44 1016.18 1015.71 1015.69 1015.86 1016.07 1016.18 1015.87 1016.06 1016.43 1016.28 1016.60 1016.59 1016.52 1016.40 1016.27 1016.29 1016.80 1015.75 1016.58
1032.80 1032.27 1031.68 1030.80 1030.03 1029.28 1028.38 1027.50 1026.66 1025.54 1024.45 1023.61 1022.69 1021.64 1020.88 1019.75 1017.65 1016.59 1015.64 1016.11 1016.32 1016.54 1016.43 1016.31 1016.32 1016.20 1016.03 1015.93 1015.97 1016.11 1016.17 1016.18 1016.42 1016.53 1016.54 1016.36 1016.13 1016.36 1016.33 1016.50 1016.40 1015.94 1013.81
1033.67 1033.12 1032.36 1031.60 1030.81 1030.03 1029.05 1028.05 1026.98 1026.03 1025.11 1023.86 1023.30 1022.53 1021.12 1020.18 1019.13 1017.20 1015.92 1015.80 1016.14 1016.14 1016.31 1016.17 1016.07 1016.16 1016.30 1016.18 1016.41 1016.49 1016.68 1016.68 1016.83 1016.62 1016.44 1016.35 1016.08 1016.20 1016.28 1016.58 1016.17 1013.60 1015.81
1034.03 1033.42 1032.95 1032.35 1031.49 1030.69 1029.65 1028.60 1027.55 1026.48 1025.36 1024.43 1024.03 1022.94 1021.78 1021.02 1019.70 1018.48 1016.30 1015.56 1015.63 1015.76 1015.86 1016.20 1016.00 1016.17 1016.45 1016.71 1017.03 1017.28 1017.31 1017.13 1017.03 1016.97 1016.71 1016.24 1015.97 1016.23 1016.51 1016.70 1016.84 1017.51 1017.19
1034.94 1034.16 1033.18 1032.56 1031.95 1031.23 1030.06 1028.99 1027.91 1026.89 1025.82 1025.11 1024.02 1023.70 1022.80 1021.72 1020.60 1019.95 1017.72 1015.08 1015.06 1015.09 1015.39 1015.77 1016.03 1016.09 1016.67 1017.22 1017.53 1018.09 1017.98 1017.99 1017.94 1017.41 1017.02 1016.33 1016.11 1016.27 1016.51 1016.97 1017.10 1017.80 1018.33
1035.29 1034.75 1034.06 1033.36 1032.67 1031.77 1030.61 1029.52 1028.25 1027.00 1026.31 1025.24 1024.50 1023.84 1023.40 1022.11 1021.34 1020.33 1018.89 1016.98 1014.81 1014.73 1015.09 1015.63 1015.91 1016.20 1016.75 1017.29 1018.05 1018.35 1018.54 1018.62 1018.60 1018.01 1017.81 1016.86 1015.95 1016.15 1016.35 1016.73 1017.20 1017.81 1018.20
1035.54 1035.10 1034.47 1033.77 1033.35 1032.53 1031.28 1030.24 1028.93 1027.72 1026.53 1025.55 1024.76 1024.37 1023.91 1022.99 1022.09 1020.73 1019.72 1018.19 1015.98 1015.11 1014.59 1015.18 1015.91 1016.27 1017.19 1017.36 1017.78 1018.45 1018.91 1018.63 1019.00 1018.49 1018.31 1017.38 1016.51 1015.85 1016.23 1016.19 1016.92 1017.65 1018.38
1036.01 1035.70 1035.14 1034.66 1034.08 1033.37 1032.74 1031.82 1030.77 1029.26 1027.19 1026.27 1025.36 1024.86 1024.17 1023.62 1022.55 1021.42 1019.82 1019.25 1017.43 1015.27 1014.73 1014.72 1015.33 1016.11 1016.62 1016.87 1017.06 1017.95 1018.52 1018.79 1018.98 1018.76 1018.75 1018.15 1017.17 1016.67 1016.16 1016.31 1016.77 1017.59 1018.55
1036.48 1036.28 1035.80 1035.39 1034.84 1034.04 1033.60 1032.28 1031.14 1029.43 1027.95 1026.47 1025.98 1025.02 1024.42 1023.92 1022.73 1021.13 1020.46 1018.84 1018.00 1016.23 1014.16 1014.28 1014.52 1015.05 1015.68 1016.41 1016.62 1016.70 1017.69 1018.10 1018.74 1019.27 1019.29 1019.02 1018.06 1017.20 1016.53 1016.86 1017.17 1018.06 1018.80
1037.05 1036.83 1036.43 1035.91 1035.22 1034.50 1033.99 1032.99 1032.08 1030.66 1029.05 1027.90 1026.69 1025.53 1024.54 1023.91 1023.03 1021.92 1020.38 1019.67 1017.75 1017.01 1014.05 1013.77 1013.93 1014.09 1014.49 1015.12 1016.24 1016.32 1016.15 1016.46 1017.49 1019.16 1019.66 1020.00 1019.13 1018.94 1016.96 1017.17 1017.50 1018.47 1019.24
1037.36 1036.96 1036.68 1036.19 1035.52 1034.85 1034.37 1033.74 1032.57 1031.44 1030.27 1028.66 1027.33 1025.91 1024.60 1023.75 1023.38 1021.96 1020.49 1019.75 1018.71 1016.86 1016.04 1013.25 1013.38 1013.47 1013.58 1013.92 1014.56 1015.34 1015.96 1016.08 1016.64 1017.07 1018.91 1020.03 1019.73 1019.75 1017.37 1017.55 1018.32 1019.44 1020.24
1037.26 1037.01 1036.71 1036.17 1035.58 1034.98 1034.49 1033.81 1032.87 1031.79 1030.60 1029.10 1027.64 1026.23 1024.74 1023.79 1022.95 1022.01 1021.23 1020.10 1019.15 1017.47 1016.28 1014.26 1012.73 1012.70 1012.85 1013.16 1013.66 1014.15 1014.36 1014.74 1015.45 1015.91 1017.53 1019.49 1020.01 1020.06 1018.69 1019.06 1019.37 1020.43 1020.88
Wind_Speed
22 34 17 5 6 6 6 7 6 6 4 5 4 4 3 5 7 6 6 5 5 4 5 3 5 8 7 6 6 5 6 6 6 6 5 8 10 13 12 9 8 13 13
26 29 11 8 3 2 2 5 6 6 5 5 6 4 3 4 4 4 5 5 4 3 3 2 6 7 5 6 7 7 7 7 6 6 4 7 7 12 12 8 7 14 14
30 27 28 21 7 3 1 3 2 4 5 6 6 7 6 5 4 3 3 3 4 3 2 3 5 5 4 2 6 7 7 7 7 6 5 7 10 10 11 6 13 12 15
23 22 24 31 33 22 5 3 1 4 3 3 4 4 4 4 5 4 4 4 4 3 2 2 2 5 5 2 5 6 6 6 7 9 8 6 9 10 12 11 13 13 14
22 22 24 33 32 29 31 19 4 7 6 5 4 4 5 5 5 5 6 5 5 3 2 3 3 1 4 4 3 5 5 5 6 10 7 7 7 11 13 13 14 14 12
21 22 25 34 32 31 31 27 29 16 7 7 5 6 7 7 7 7 6 6 5 5 4 5 4 4 3 4 5 6 5 6 7 9 7 7 8 15 15 14 13 14 14
22 21 22 33 34 33 31 29 31 27 23 9 9 9 9 9 9 8 6 5 7 6 6 6 4 5 5 5 6 7 6 7 9 7 7 8 10 14 16 15 15 15 16
21 22 22 30 33 33 31 30 31 29 26 24 13 10 9 9 8 4 5 6 7 9 8 7 7 6 6 6 6 4 7 6 8 8 8 8 8 15 16 16 16 16 17
20 21 21 22 27 32 31 31 33 29 29 28 19 12 8 6 6 3 4 4 6 9 9 6 8 6 7 7 7 6 6 6 9 6 8 7 8 15 17 16 16 19 19
19 21 22 22 22 22 21 30 32 31 31 29 23 12 8 6 5 2 3 4 5 5 6 5 6 6 6 7 7 5 6 5 10 6 8 7 7 13 16 16 17 18 19
20 22 20 21 22 21 20 20 25 28 29 28 26 10 8 8 7 4 2 5 6 6 5 5 5 6 5 3 2 2 4 6 7 5 6 5 9 14 15 16 17 19 19
27 25 22 21 21 21 17 19 18 18 14 15 16 21 8 8 5 4 2 3 5 5 5 5 4 4 7 5 4 3 5 5 6 6 6 6 10 13 14 16 17 20 21
23 21 24 23 19 20 16 13 9 9 10 11 16 16 17 5 4 3 3 4 5 3 6 5 5 6 7 5 5 6 6 6 4 4 7 5 9 13 14 16 20 22 25
23 23 24 24 22 19 13 11 13 11 11 10 12 16 13 7 5 6 4 3 3 4 6 7 5 6 6 6 6 7 7 5 5 3 6 9 9 14 16 15 20 25 28
22 23 24 23 21 20 19 12 12 12 11 12 12 14 12 13 10 10 6 4 4 3 4 5 6 6 8 7 6 7 8 7 7 4 3 8 10 14 4 6 10 30 30
21 22 22 22 21 21 18 19 13 11 13 13 10 12 16 13 11 11 8 6 6 5 5 5 6 5 6 6 7 7 6 6 7 6 5 7 9 12 9 8 17 7 33
17 21 22 21 22 22 20 18 14 13 14 13 12 14 16 15 17 13 11 7 6 5 6 6 6 7 3 3 5 3 2 4 3 6 6 5 6 8 11 14 23 17 27
21 21 19 18 21 22 20 16 13 13 12 13 13 12 17 18 18 17 11 9 7 6 5 6 6 4 4 3 2 3 2 3 4 3 6 5 6 8 10 25 28 20 23
18 21 22 21 21 23 19 16 15 16 13 13 12 11 16 16 17 14 14 11 10 6 5 7 5 5 3 4 4 3 4 5 5 4 5 4 9 10 7 17 27 28 26
17 18 18 17 21 21 15 15 13 12 12 12 13 12 17 13 17 14 12 16 8 5 5 6 4 3 3 6 5 6 5 5 5 5 6 4 7 11 9 12 12 15 27
17 18 20 20 20 16 15 16 15 16 15 13 12 19 17 16 17 15 11 12 14 7 8 8 3 6 2 4 5 4 3 6 6 6 6 5 6 8 12 12 9 11 13
17 18 19 19 19 16 13 13 13 14 10 14 12 17 17 18 17 14 14 12 14 10 7 10 9 3 3 7 3 3 2 1 3 7 7 7 6 3 8 11 14 14 13
16 17 17 18 18 16 18 13 13 12 11 10 13 13 16 19 17 17 15 13 14 15 7 10 10 12 6 8 7 4 4 3 3 3 6 7 8 3 8 10 13 12 13
15 14 16 17 17 15 18 15 18 13 16 13 14 14 15 18 17 18 16 14 14 12 10 10 9 11 9 10 4 3 2 5 4 3 3 4 5 4 9 10 12 12 12
13 13 14 15 16 16 16 16 13 15 13 14 14 19 17 16 17 18 16 18 14 11 18 11 11 12 10 10 9 4 3 2 1 5 4 1 3 4 9 10 11 9 10
12 13 14 15 16 16 16 16 16 17 17 15 16 15 14 13 12 15 16 15 14 14 15 13 14 15 12 9 10 9 7 7 6 7 8 3 2 5 8 9 10 7 8
Wind_Direction
330 310 282 233 177 169 164 158 162 149 150 153 148 138 111 110 136 143 159 168 176 195 214 187 164 157 146 163 172 158 145 143 113 112 120 130 130 128 127 130 152 118 124
325 319 326 277 227 176 198 174 166 150 148 162 168 167 160 149 147 157 168 176 191 218 229 209 180 149 143 155 172 174 164 150 126 134 133 115 124 136 138 165 124 122 127
341 350 7 342 316 269 184 279 244 162 168 168 173 174 174 171 170 184 203 205 213 222 226 190 179 153 134 112 146 172 176 180 174 151 183 165 149 154 145 146 116 133 133
339 351 2 6 14 349 282 243 233 283 238 194 186 197 192 189 188 202 217 226 232 244 238 206 233 179 143 154 162 164 171 181 182 172 197 164 157 161 153 150 142 140 139
346 357 357 6 12 9 12 341 222 235 231 253 211 206 214 220 224 222 225 231 248 259 303 259 243 175 151 172 179 175 170 171 161 190 199 180 177 160 168 162 155 144 160
351 359 359 4 8 9 8 359 5 314 231 218 221 216 213 212 224 236 241 245 245 258 263 287 241 199 177 190 206 202 189 170 189 215 206 174 200 153 177 177 161 152 133
357 357 359 1 6 6 4 2 1 349 336 264 232 218 220 220 223 227 238 260 272 246 252 264 269 209 189 207 225 230 209 190 221 215 213 205 204 168 180 179 171 159 146
359 358 358 360 3 2 360 360 358 351 346 332 278 255 235 236 234 210 238 254 285 287 264 254 255 227 213 217 226 234 216 206 222 225 224 216 184 190 183 183 173 165 159
5 3 2 0 359 358 355 357 353 352 347 341 305 270 257 249 265 266 284 284 280 296 294 269 248 241 232 225 228 219 209 201 247 223 229 220 158 200 193 186 181 170 162
9 9 3 360 357 356 350 354 350 350 346 342 327 280 268 260 249 246 289 254 308 319 330 294 257 250 233 231 235 222 189 184 233 235 229 226 169 206 200 190 183 174 162
8 10 5 359 356 354 350 349 349 348 345 343 336 292 267 252 241 234 360 339 312 312 320 330 299 256 219 221 291 264 188 224 227 236 235 149 220 213 209 195 184 177 164
360 2 2 359 355 353 350 347 346 345 340 336 329 334 281 256 254 270 288 2 298 304 301 309 303 268 190 221 205 206 233 224 232 232 242 171 227 223 219 205 186 177 161
357 359 360 355 355 353 348 346 343 338 337 334 335 332 318 300 276 251 280 292 287 253 262 245 236 231 223 234 236 229 224 229 234 240 265 241 240 233 230 216 197 169 162
358 359 357 355 353 354 344 345 337 336 335 332 328 323 324 303 256 264 242 241 263 286 275 268 258 246 221 233 236 243 237 217 246 250 258 273 270 247 233 224 204 170 160
359 356 356 354 354 350 348 339 342 335 330 326 324 319 327 318 299 280 267 241 242 240 258 260 264 256 240 228 230 246 241 243 248 258 267 260 247 259 189 206 207 188 161
355 355 352 352 353 349 347 344 337 332 330 328 321 327 330 324 304 293 268 245 243 236 239 243 246 241 251 247 235 231 260 257 259 261 267 274 237 187 162 219 245 250 149
358 352 353 350 350 349 345 343 338 335 328 325 331 325 330 327 332 293 271 243 226 224 247 247 232 230 237 248 215 192 218 249 269 265 266 244 198 174 177 128 75 97 132
353 356 354 352 351 348 342 341 338 335 328 334 326 328 331 334 334 331 277 246 224 203 223 250 236 182 174 176 143 39 15 346 316 306 279 209 181 158 136 135 131 122 113
355 352 350 353 354 348 342 341 338 335 337 328 333 328 338 328 332 329 318 261 219 203 210 231 215 170 159 118 98 47 31 17 347 337 308 251 187 167 161 152 148 151 149
356 355 353 353 352 349 345 342 338 335 338 329 334 337 334 329 335 328 319 318 261 198 190 224 179 117 133 136 109 74 43 39 3 8 336 306 202 176 167 158 148 148 147
357 357 355 351 353 350 350 345 342 336 330 336 328 338 333 334 328 328 309 320 306 240 196 182 150 150 127 137 120 85 63 62 31 10 353 317 2 194 168 158 148 144 142
353 354 352 352 349 348 349 337 333 326 322 324 338 329 329 331 323 320 327 308 307 278 209 173 165 150 125 182 142 116 150 93 39 20 3 342 1 293 124 144 141 139 141
354 349 347 347 344 344 345 337 336 325 328 329 333 330 329 323 323 330 312 321 305 317 210 196 186 180 167 195 227 164 155 187 126 3 353 350 6 20 114 115 115 116 125
348 343 343 342 341 344 342 341 341 334 328 331 323 320 325 324 323 320 324 314 328 309 246 201 197 193 187 186 204 244 283 144 158 148 19 329 3 348 108 100 96 99 106
344 342 341 336 339 342 342 339 334 332 322 320 321 321 324 324 320 321 328 325 315 321 311 209 201 196 197 193 195 144 193 80 146 162 116 273 48 317 71 92 90 86 94
343 346 341 339 337 340 339 336 333 329 326 323 325 322 324 322 318 320 324 319 312 314 299 309 211 201 195 208 197 192 177 167 170 157 128 114 83 325 49 61 88 88 93